Project,Study,Ord_Occ,Event_Num,Cast_ID,Date_Time_UTC,Date_Time_PST,Lat_Dec,Lon_Dec,Sta_ID,Line,Sta,Depth,Pressure,PrQ,Temp1,Temp1Q,Temp2,Temp2Q,TempAve,Salt1,Salt1Q,Salt1_Corr,Salt2,Salt2Q,Salt2_Corr,SaltAve_Corr,Ox1,Ox1Q,Ox1_CruiseCorr,Ox1_StaCorr,Ox2,Ox2Q,Ox2_CruiseCorr,Ox2_StaCorr,OxAve_StaCorr,Ox1uM,Ox1uM_CruiseCorr,Ox1uM_StaCorr,Ox2uM,Ox2uM_CruiseCorr,Ox2uM_StaCorr,OxAveuM_StaCorr,FluorV,FluorQ,EstChl_CruiseCorr,EstChl_StaCorr,ISUSV,ISUSQ,EstNO3_CruiseCorr,EstNO3_StaCorr,SigThetaTS1,SigThetaTS1Q,SigThetaTS2,SigThetaTS2Q,BAT,XMiss,TransQ,pH,pHQ,SPAR,SPARQ,PAR,PARQ,PoT1,PoT2,DynHt,SVA,OxSat1,OxSat2,BTL_Depth,BTL_Temp,SaltB,OxB,OxBuM,Chl-a,Phaeo,NO3,NO2,NH4,PO4,SIL
CalCOFI,2007SR,038,40,2007_038d,20-Jul-2020 02:13:09,19-Jul-2020 18:13:09,33.48968,-119.31762,086.7 045.0,086.7,045.0,2.000,2.014,,17.2316,,17.2171,,17.2244,33.7652,,33.7654,33.7685,,33.7701,33.7678,5.6338,,5.8691,6.3379,4.0015,,5.6116,4.1024,5.2202,245.584,255.8770,271.7870,174.432,435.1186,162.5577,217.1724,0.5037,,5.5556,3.8882,-99.0,,-99.0,-99.0,24.5120,,24.5180,,1.2749,72.7057,,8.176,,1.6584E+02,,1.1264E+01,,17.2312,17.2168,-0.0008,,102.600,72.855,2,18.052,33.7737,5.948,259.63,3.234,0.116,0.08,0.028,0.00,0.27,1.96
CalCOFI,2007SR,038,40,2007_038d,20-Jul-2020 02:13:35,19-Jul-2020 18:13:35,33.48969,-119.31762,086.7 045.0,086.7,045.0,3.000,3.021,,17.8841,,18.0354,,17.9598,33.7809,,33.7811,33.7700,,33.7716,33.7764,5.6723,,5.9093,6.3825,4.0717,,5.7792,4.2413,5.3119,247.298,257.6663,273.7358,177.525,439.3108,168.0463,220.8911,0.3574,,3.8031,2.9030,-99.0,,-99.0,-99.0,24.3674,,24.3224,,1.1840,74.3756,,8.205,,1.6873E+02,,8.2152E+00,,17.8836,18.0349,0.0123,,104.607,75.297,,,,,,,,,,,,
CalCOFI,2007SR,038,40,2007_038d,20-Jul-2020 02:13:36,19-Jul-2020 18:13:36,33.48970,-119.31762,086.7 045.0,086.7,045.0,4.000,4.029,,17.9124,,17.9374,,17.9249,33.7748,,33.7750,33.7723,,33.7739,33.7745,5.6190,,5.8536,6.3208,4.0799,,5.7987,4.2575,5.2892,244.980,255.2465,271.1003,177.879,433.6413,168.6745,219.8874,0.4536,,4.9540,3.5714,-99.0,,-99.0,-99.0,24.3554,,24.3474,,1.2085,73.9241,,8.200,,1.6728E+02,,6.3538E+00,,17.9117,17.9367,0.0153,,103.678,75.314,,,,,,,,,,,,
CalCOFI,2007SR,038,40,2007_038d,20-Jul-2020 02:13:39,19-Jul-2020 18:13:39,33.48970,-119.31762,086.7 045.0,086.7,045.0,5.000,5.036,,17.8356,,17.8007,,17.8182,33.7626,,33.7628,33.7617,,33.7633,33.7631,5.5509,,5.7824,6.2420,4.1131,,5.8780,4.3232,5.2826,242.008,252.1441,267.7211,179.319,426.3722,171.2298,219.4755,0.4845,,5.3249,3.7693,-99.0,,-99.0,-99.0,24.3648,,24.3726,,1.2152,73.8006,,8.199,,1.6649E+02,,4.4429E+00,,17.8347,17.7998,0.0190,,102.265,75.724,,,,,,,,,,,,
CalCOFI,2007SR,038,40,2007_038d,20-Jul-2020 02:13:41,19-Jul-2020 18:13:41,33.48970,-119.31764,086.7 045.0,086.7,045.0,6.000,6.043,,17.4123,,17.3349,,17.3736,33.7621,,33.7623,33.7546,,33.7562,33.7593,5.4878,,5.7165,6.1689,4.1636,,5.9986,4.4231,5.2960,239.233,249.2472,264.5659,181.501,419.5850,175.1018,219.8339,0.5668,,6.3155,4.2567,-99.0,,-99.0,-99.0,24.4665,,24.4793,,1.2426,73.2983,,8.197,,1.6756E+02,,3.7419E+00,,17.4113,17.3339,0.0225,,100.291,75.971,,,,,,,,,,,,
CalCOFI,2007SR,038,40,2007_038d,20-Jul-2020 02:13:43,19-Jul-2020 18:13:43,33.48968,-119.31764,086.7 045.0,086.7,045.0,7.000,7.050,,17.0046,,17.1099,,17.0573,33.7538,,33.7540,33.7545,,33.7561,33.7551,5.1369,,5.3498,5.7628,4.2385,,6.1774,4.5712,5.1670,223.916,233.2578,247.1506,184.761,382.1218,180.8867,214.0187,0.5896,,6.5906,4.3816,-99.0,,-99.0,-99.0,24.5571,,24.5327,,1.2937,72.3674,,8.191,,1.6758E+02,,2.8518E+00,,17.0034,17.1088,0.0259,,93.140,77.006,,,,,,,,,,,,
CalCOFI,2007SR,038,40,2007_038d,20-Jul-2020 02:13:45,19-Jul-2020 18:13:45,33.48969,-119.31764,086.7 045.0,086.7,045.0,8.000,8.057,,16.0204,,16.4317,,16.2261,33.7034,,33.7036,33.7188,,33.7204,33.7120,4.8039,,5.0019,5.3774,4.3387,,6.4166,4.7694,5.0734,209.360,218.0628,230.6004,189.103,346.5198,188.5918,209.5961,0.7835,,8.9435,5.2639,-99.0,,-99.0,-99.0,24.7451,,24.6630,,1.4137,70.2312,,8.179,,1.6633E+02,,2.6979E+00,,16.0191,16.4304,0.0293,,85.444,77.777,,,,,,,,,,,,
CalCOFI,2007SR,038,40,2007_038d,20-Jul-2020 02:13:47,19-Jul-2020 18:13:47,33.48970,-119.31764,086.7 045.0,086.7,045.0,9.000,9.064,,14.1131,,14.1180,,14.1156,33.7144,,33.7146,33.6919,,33.6935,33.7041,4.5217,,4.7070,5.0508,4.5220,,6.8542,5.1320,5.0914,196.982,205.1414,216.5267,196.997,316.2450,202.5999,209.5633,0.9303,,10.7400,5.7185,-99.0,,-99.0,-99.0,25.1699,,25.1513,,1.3729,70.9488,,8.166,,1.6567E+02,,2.1276E+00,,14.1118,14.1167,0.0323,,77.418,77.416,,,,,,,,,,,,
CalCOFI,2007SR,038,40,2007_038d,20-Jul-2020 02:13:49,19-Jul-2020 18:13:49,33.48970,-119.31764,086.7 045.0,086.7,045.0,10.000,10.072,,13.0736,,13.2022,,13.1379,33.7246,,33.7248,33.7517,,33.7533,33.7391,4.4258,,4.6068,4.9398,4.6015,,7.0440,5.2893,5.1146,192.764,200.7382,211.7309,200.415,305.9284,208.6652,210.1981,0.8848,,10.1818,5.5973,-99.0,,-99.0,-99.0,25.3895,,25.3849,,1.2885,72.4711,,8.139,,1.6567E+02,,2.0015E+00,,13.0722,13.2008,0.0350,,74.201,77.342,10,16.692,33.7669,5.737,250.45,5.710,0.899,2.34,0.042,0.13,0.37,4.57
CalCOFI,2007SR,038,40,2007_038d,20-Jul-2020 02:13:52,19-Jul-2020 18:13:52,33.48970,-119.31764,086.7 045.0,086.7,045.0,11.000,11.079,,12.9768,,13.3505,,13.1637,33.7336,,33.7338,33.6376,,33.6392,33.6865,4.0907,,4.2567,4.5520,4.5579,,6.9399,5.2031,4.8776,178.161,185.4942,195.1273,198.538,270.2115,205.3344,200.2309,0.7049,,7.9870,4.9449,-99.0,,-99.0,-99.0,25.4160,,25.2659,,1.1036,75.8852,,8.093,,1.6567E+02,,1.7886E+00,,12.9753,13.3490,0.0375,,68.437,76.788,,,,,,,,,,,,
CalCOFI,2007SR,038,40,2007_038d,20-Jul-2020 02:13:53,19-Jul-2020 18:13:53,33.48970,-119.31764,086.7 045.0,086.7,045.0,12.000,12.086,,12.4571,,12.4902,,12.4737,33.7512,,33.7514,33.7497,,33.7513,33.7514,4.0808,,4.2463,4.5406,4.5998,,7.0399,5.2859,4.9133,177.709,185.0223,194.6134,200.316,269.1060,208.4895,201.5515,0.6760,,7.6362,4.8143,-99.0,,-99.0,-99.0,25.5322,,25.5246,,1.0825,76.2917,,8.063,,1.6567E+02,,1.6188E+00,,12.4555,12.4886,0.0400,,67.548,76.192,,,,,,,,,,,,
CalCOFI,2007SR,038,40,2007_038d,20-Jul-2020 02:13:55,19-Jul-2020 18:13:55,33.48970,-119.31764,086.7 045.0,086.7,045.0,13.000,13.093,,12.3718,,12.3753,,12.3736,33.7571,,33.7573,33.7629,,33.7645,33.7609,3.9857,,4.1470,4.4305,4.5706,,6.9702,5.2282,4.8294,173.565,180.6964,189.9017,199.038,258.9704,206.2217,198.0617,0.5682,,6.3324,4.2645,-99.0,,-99.0,-99.0,25.5533,,25.5571,,1.0115,77.6585,,8.034,,1.6567E+02,,1.5529E+00,,12.3701,12.3736,0.0425,,65.859,75.533,,,,,,,,,,,,
CalCOFI,2007SR,038,40,2007_038d,20-Jul-2020 02:13:58,19-Jul-2020 18:13:58,33.48970,-119.31764,086.7 045.0,086.7,045.0,14.000,14.100,,12.2935,,12.3183,,12.3059,33.7574,,33.7576,33.7593,,33.7609,33.7593,3.8184,,3.9721,4.2369,4.5269,,6.8659,5.1417,4.6893,166.278,173.0895,181.6164,197.131,241.1474,202.8376,192.2270,0.4769,,5.2336,3.7214,-99.0,,-99.0,-99.0,25.5685,,25.5652,,0.9673,78.5206,,8.011,,1.6567E+02,,1.4049E+00,,12.2916,12.3165,0.0449,,62.992,74.719,,,,,,,,,,,,
CalCOFI,2007SR,038,40,2007_038d,20-Jul-2020 02:13:59,19-Jul-2020 18:13:59,33.48970,-119.31764,086.7 045.0,086.7,045.0,15.000,15.108,,12.1341,,12.1471,,12.1406,33.7601,,33.7603,33.7595,,33.7611,33.7607,3.7678,,3.9193,4.1783,4.5052,,6.8141,5.0988,4.6386,164.071,170.7856,179.1070,196.179,235.7494,201.1483,190.1277,0.4115,,4.4496,3.2886,-99.0,,-99.0,-99.0,25.6011,,25.5981,,0.9085,79.6841,,7.993,,1.6567E+02,,1.3497E+00,,12.1322,12.1451,0.0473,,61.952,74.096,15,12.331,33.7748,,179.67,3.642,1.128,12.74,0.139,0.09,1.17,13.95
CalCOFI,2007SR,038,40,2007_038d,20-Jul-2020 02:14:02,19-Jul-2020 18:14:02,33.48968,-119.31764,086.7 045.0,086.7,045.0,16.000,16.115,,11.9985,,11.9971,,11.9978,33.7609,,33.7611,33.7699,,33.7715,33.7663,3.7204,,3.8697,4.1235,4.4612,,6.7090,5.0118,4.5677,162.003,168.6268,176.7557,194.258,230.6914,197.7394,187.2476,0.3876,,4.1638,3.1213,-99.0,,-99.0,-99.0,25.6274,,25.6347,,0.8879,80.0944,,7.973,,1.6567E+02,,1.2541E+00,,11.9964,11.9950,0.0497,,61.000,73.147,,,,,,,,,,,,
CalCOFI,2007SR,038,40,2007_038d,20-Jul-2020 02:14:04,19-Jul-2020 18:14:04,33.48969,-119.31764,086.7 045.0,086.7,045.0,17.000,17.122,,11.9097,,11.9121,,11.9109,33.7616,,33.7618,33.7631,,33.7647,33.7633,3.6828,,3.8305,4.0799,4.4214,,6.6140,4.9330,4.5065,160.363,166.9148,174.8910,192.521,226.6802,194.6571,184.7741,0.3311,,3.4894,2.7065,-99.0,,-99.0,-99.0,25.6447,,25.6454,,0.8849,80.1545,,7.960,,1.6567E+02,,1.1475E+00,,11.9075,11.9099,0.0521,,60.271,72.361,,,,,,,,,,,,
CalCOFI,2007SR,038,40,2007_038d,20-Jul-2020 02:14:05,19-Jul-2020 18:14:05,33.48970,-119.31764,086.7 045.0,086.7,045.0,18.000,18.129,,11.8650,,11.8664,,11.8657,33.7635,,33.7637,33.7656,,33.7672,33.7655,3.6162,,3.7609,4.0029,4.3898,,6.5386,4.8705,4.4367,157.460,163.8844,171.5903,191.143,219.5798,192.2118,181.9011,0.2826,,2.9121,2.3288,-99.0,,-99.0,-99.0,25.6546,,25.6560,,0.8673,80.5070,,7.950,,1.6567E+02,,1.0866E+00,,11.8627,11.8641,0.0544,,59.125,71.776,,,,,,,,,,,,
CalCOFI,2007SR,038,40,2007_038d,20-Jul-2020 02:14:08,19-Jul-2020 18:14:08,33.48969,-119.31766,086.7 045.0,086.7,045.0,19.000,19.137,,11.8040,,11.8097,,11.8069,33.7663,,33.7665,33.7691,,33.7707,33.7686,3.4757,,3.6141,3.8403,4.3587,,6.4643,4.8090,4.3247,151.341,157.4968,164.6331,189.790,204.6136,189.8109,177.2220,0.2863,,2.9561,2.3583,-99.0,,-99.0,-99.0,25.6682,,25.6693,,0.8457,80.9435,,7.938,,1.6567E+02,,1.0026E+00,,11.8016,11.8073,0.0568,,56.757,71.186,,,,,,,,,,,,
CalCOFI,2007SR,038,40,2007_038d,20-Jul-2020 02:14:10,19-Jul-2020 18:14:10,33.48968,-119.31766,086.7 045.0,086.7,045.0,20.000,20.144,,11.6343,,11.6439,,11.6391,33.7718,,33.7720,33.7715,,33.7731,33.7726,3.3201,,3.4515,3.6602,4.3383,,6.4156,4.7687,4.2145,144.562,150.4202,156.9254,188.894,188.0332,188.2209,172.5732,0.2342,,2.3374,1.9318,-99.0,,-99.0,-99.0,25.7040,,25.7021,,0.8130,81.6092,,7.927,,1.6567E+02,,9.2792E-01,,11.6318,11.6414,0.0591,,54.025,70.606,,,,,,,,,,,,
CalCOFI,2007SR,038,40,2007_038d,20-Jul-2020 02:14:12,19-Jul-2020 18:14:12,33.48968,-119.31766,086.7 045.0,086.7,045.0,21.000,21.151,,11.3897,,11.4010,,11.3954,33.7748,,33.7750,33.7749,,33.7765,33.7758,3.2226,,3.3496,3.5473,4.3206,,6.3734,4.7336,4.1405,140.310,145.9815,152.0909,188.115,177.6334,186.8385,169.4647,0.1768,,1.6577,1.4350,-99.0,,-99.0,-99.0,25.7514,,25.7494,,0.7777,82.3316,,7.912,,1.6534E+02,,8.5913E-01,,11.3871,11.3984,0.0614,,52.169,69.959,21,11.268,33.7945,3.536,154.34,2.080,0.869,16.38,0.111,0.13,1.40,17.48
CalCOFI,2007SR,038,40,2007_038d,20-Jul-2020 02:14:14,19-Jul-2020 18:14:14,33.48968,-119.31766,086.7 045.0,086.7,045.0,22.000,22.158,,11.2067,,11.2205,,11.2136,33.7838,,33.7840,33.7848,,33.7864,33.7852,3.1465,,3.2701,3.4593,4.2955,,6.3134,4.6840,4.0717,136.990,142.5158,148.3160,187.014,169.5131,184.8848,166.6004,0.1422,,1.2489,1.1221,-99.0,,-99.0,-99.0,25.7918,,25.7900,,0.7462,82.9819,,7.898,,1.6392E+02,,8.0253E-01,,11.2039,11.2178,0.0636,,50.741,69.290,,,,,,,,,,,,
CalCOFI,2007SR,038,40,2007_038d,20-Jul-2020 02:14:16,19-Jul-2020 18:14:16,33.48970,-119.31766,086.7 045.0,086.7,045.0,23.000,23.166,,11.0462,,11.0741,,11.0602,33.7940,,33.7942,33.7933,,33.7949,33.7946,3.1398,,3.2631,3.4515,4.2715,,6.2562,4.6365,4.0440,136.694,142.2068,147.9795,185.964,168.7892,183.0215,165.5005,0.1205,,0.9929,0.9205,-99.0,,-99.0,-99.0,25.8286,,25.8231,,0.7162,83.6062,,7.887,,1.6562E+02,,7.6874E-01,,11.0434,11.0713,0.0658,,50.464,68.693,,,,,,,,,,,,
CalCOFI,2007SR,038,40,2007_038d,20-Jul-2020 02:14:18,19-Jul-2020 18:14:18,33.48968,-119.31766,086.7 045.0,086.7,045.0,24.000,24.173,,10.9820,,10.9825,,10.9823,33.8025,,33.8027,33.8072,,33.8088,33.8058,3.1348,,3.2579,3.4457,4.2285,,6.1535,4.5515,3.9986,136.473,141.9761,147.7282,184.088,168.2486,179.6925,163.7104,0.1124,,0.8974,0.8443,-99.0,,-99.0,-99.0,25.8468,,25.8503,,0.7121,83.6926,,7.875,,1.6567E+02,,7.2324E-01,,10.9791,10.9796,0.0680,,50.316,67.875,,,,,,,,,,,,
CalCOFI,2007SR,038,40,2007_038d,20-Jul-2020 02:14:20,19-Jul-2020 18:14:20,33.48968,-119.31766,086.7 045.0,086.7,045.0,25.000,25.180,,10.9804,,10.9864,,10.9834,33.8057,,33.8059,33.8079,,33.8095,33.8077,3.1151,,3.2373,3.4229,4.1845,,6.0485,4.4644,3.9437,135.613,141.0783,146.7504,182.169,166.1452,176.2872,161.5188,0.1048,,0.8079,0.7722,-99.0,,-99.0,-99.0,25.8495,,25.8502,,0.7081,83.7758,,7.867,,1.6567E+02,,6.8272E-01,,10.9773,10.9834,0.0701,,49.999,67.173,,,,,,,,,,,,
CalCOFI,2007SR,038,40,2007_038d,20-Jul-2020 02:14:22,19-Jul-2020 18:14:22,33.48968,-119.31766,086.7 045.0,086.7,045.0,26.000,26.187,,10.9680,,10.9717,,10.9699,33.8066,,33.8068,33.8092,,33.8108,33.8088,3.0740,,3.1943,3.3753,4.1475,,5.9601,4.3912,3.8833,133.827,139.2139,144.7197,180.560,161.7769,173.4320,159.0759,0.1014,,0.7678,0.7399,-99.0,,-99.0,-99.0,25.8525,,25.8538,,0.7075,83.7891,,7.861,,1.6499E+02,,6.5014E-01,,10.9648,10.9685,0.0723,,49.328,66.559,,,,,,,,,,,,
CalCOFI,2007SR,038,40,2007_038d,20-Jul-2020 02:14:24,19-Jul-2020 18:14:24,33.48968,-119.31766,086.7 045.0,086.7,045.0,27.000,27.195,,10.8884,,10.9084,,10.8984,33.8070,,33.8072,33.8085,,33.8101,33.8087,3.0670,,3.1870,3.3672,4.1179,,5.8895,4.3327,3.8500,133.519,138.8924,144.3695,179.270,161.0236,171.1428,157.7562,0.0932,,0.6713,0.6613,-99.0,,-99.0,-99.0,25.8670,,25.8646,,0.7016,83.9124,,7.855,,1.6376E+02,,6.2288E-01,,10.8852,10.9052,0.0745,,49.131,65.995,,,,,,,,,,,,
CalCOFI,2007SR,038,40,2007_038d,20-Jul-2020 02:14:26,19-Jul-2020 18:14:26,33.48968,-119.31766,086.7 045.0,086.7,045.0,28.000,28.202,,10.8086,,10.8123,,10.8105,33.8058,,33.8060,33.8086,,33.8102,33.8081,3.0733,,3.1936,3.3745,4.0932,,5.8305,4.2838,3.8292,133.791,139.1763,144.6788,178.190,161.6888,169.2263,156.9526,0.0903,,0.6371,0.6334,-99.0,,-99.0,-99.0,25.8803,,25.8818,,0.6978,83.9912,,7.850,,1.6377E+02,,5.8911E-01,,10.8053,10.8090,0.0766,,49.148,65.464,,,,,,,,,,,,
CalCOFI,2007SR,038,40,2007_038d,20-Jul-2020 02:14:28,19-Jul-2020 18:14:28,33.48968,-119.31766,086.7 045.0,086.7,045.0,29.000,29.209,,10.7762,,10.7805,,10.7784,33.8048,,33.8050,33.8089,,33.8105,33.8078,3.0610,,3.1807,3.3603,4.0509,,5.7295,4.2001,3.7802,133.255,138.6168,144.0693,176.349,160.3778,165.9594,155.0144,0.0849,,0.5736,0.5813,-99.0,,-99.0,-99.0,25.8852,,25.8876,,0.6968,84.0121,,7.845,,1.6423E+02,,5.5374E-01,,10.7727,10.7771,0.0787,,48.917,64.744,,,,,,,,,,,,
CalCOFI,2007SR,038,40,2007_038d,20-Jul-2020 02:14:30,19-Jul-2020 18:14:30,33.48968,-119.31766,086.7 045.0,086.7,045.0,30.000,30.216,,10.7557,,10.7657,,10.7607,33.8037,,33.8039,33.8061,,33.8077,33.8058,3.0484,,3.1676,3.3457,4.0252,,5.6682,4.1493,3.7475,132.705,138.0426,143.4440,175.227,159.0326,163.9684,153.7062,0.0907,,0.6418,0.6373,-99.0,,-99.0,-99.0,25.8880,,25.8881,,0.6959,84.0308,,7.842,,1.6377E+02,,5.2620E-01,,10.7521,10.7621,0.0809,,48.693,64.311,30,10.495,33.8208,,132.68,0.390,0.303,20.26,0.036,0.00,1.68,21.97
CalCOFI,2007SR,038,40,2007_038d,20-Jul-2020 02:14:32,19-Jul-2020 18:14:32,33.48968,-119.31766,086.7 045.0,086.7,045.0,31.000,31.224,,10.7109,,10.7212,,10.7161,33.8046,,33.8048,33.8058,,33.8074,33.8061,3.0422,,3.1611,3.3385,3.9991,,5.6059,4.0977,3.7181,132.433,137.7587,143.1347,174.090,158.3674,161.9508,152.5428,0.0789,,0.5030,0.5230,-99.0,,-99.0,-99.0,25.8966,,25.8957,,0.6914,84.1271,,7.838,,1.6377E+02,,5.0420E-01,,10.7072,10.7175,0.0830,,48.547,63.832,,,,,,,,,,,,
CalCOFI,2007SR,038,40,2007_038d,20-Jul-2020 02:14:34,19-Jul-2020 18:14:34,33.48968,-119.31766,086.7 045.0,086.7,045.0,32.000,32.231,,10.6840,,10.6871,,10.6856,33.8065,,33.8067,33.8083,,33.8099,33.8083,3.0270,,3.1452,3.3210,3.9773,,5.5538,4.0546,3.6878,131.774,137.0708,142.3855,173.143,156.7555,160.2703,151.3279,0.0770,,0.4806,0.5045,-99.0,,-99.0,-99.0,25.9029,,25.9037,,0.6865,84.2293,,7.835,,1.6377E+02,,4.7724E-01,,10.6801,10.6832,0.0851,,48.279,63.440,,,,,,,,,,,,
CalCOFI,2007SR,038,40,2007_038d,20-Jul-2020 02:14:36,19-Jul-2020 18:14:36,33.48968,-119.31766,086.7 045.0,086.7,045.0,33.000,33.238,,10.6592,,10.6613,,10.6603,33.8078,,33.8080,33.8103,,33.8119,33.8100,2.9982,,3.1151,3.2876,3.9464,,5.4800,3.9934,3.6405,130.516,135.7576,140.9551,171.795,153.6786,157.8783,149.4167,0.0764,,0.4736,0.4986,-99.0,,-99.0,-99.0,25.9082,,25.9098,,0.6855,84.2514,,7.832,,1.6300E+02,,4.4384E-01,,10.6553,10.6574,0.0872,,47.793,62.912,,,,,,,,,,,,
CalCOFI,2007SR,038,40,2007_038d,20-Jul-2020 02:14:38,19-Jul-2020 18:14:38,33.48968,-119.31766,086.7 045.0,086.7,045.0,34.000,34.246,,10.6084,,10.6177,,10.6131,33.8113,,33.8115,33.8129,,33.8145,33.8130,2.9541,,3.0690,3.2366,3.9281,,5.4364,3.9572,3.5969,128.598,133.7554,138.7744,170.999,148.9875,156.4657,147.6201,0.0665,,0.3571,0.4017,-99.0,,-99.0,-99.0,25.9199,,25.9195,,0.6834,84.2942,,7.828,,1.6225E+02,,4.1485E-01,,10.6044,10.6136,0.0893,,47.041,62.564,,,,,,,,,,,,
CalCOFI,2007SR,038,40,2007_038d,20-Jul-2020 02:14:40,19-Jul-2020 18:14:40,33.48968,-119.31766,086.7 045.0,086.7,045.0,35.000,35.253,,10.5513,,10.5638,,10.5576,33.8133,,33.8135,33.8138,,33.8154,33.8145,2.8975,,3.0099,3.1711,3.9155,,5.4063,3.9323,3.5517,126.132,131.1811,135.9705,170.445,142.9560,155.4826,145.7266,0.0767,,0.4771,0.5016,-99.0,,-99.0,-99.0,25.9314,,25.9296,,0.6784,84.4001,,7.826,,1.6374E+02,,3.9779E-01,,10.5472,10.5597,0.0914,,46.083,62.290,,,,,,,,,,,,
CalCOFI,2007SR,038,40,2007_038d,20-Jul-2020 02:14:42,19-Jul-2020 18:14:42,33.48968,-119.31766,086.7 045.0,086.7,045.0,36.000,36.260,,10.4180,,10.4307,,10.4244,33.8254,,33.8256,33.8240,,33.8256,33.8256,2.8750,,2.9864,3.1450,3.8986,,5.3659,3.8989,3.5220,125.147,130.1529,134.8506,169.706,140.5468,154.1713,144.5110,0.0589,,0.2678,0.3266,-99.0,,-99.0,-99.0,25.9640,,25.9607,,0.6721,84.5340,,7.821,,1.6377E+02,,3.8408E-01,,10.4138,10.4265,0.0935,,45.597,61.849,,,,,,,,,,,,
CalCOFI,2007SR,038,40,2007_038d,20-Jul-2020 02:14:44,19-Jul-2020 18:14:44,33.48968,-119.31766,086.7 045.0,086.7,045.0,37.000,37.268,,10.3645,,10.3709,,10.3677,33.8357,,33.8359,33.8369,,33.8385,33.8372,2.8763,,2.9877,3.1465,3.8788,,5.3187,3.8597,3.5031,125.205,130.2134,134.9165,168.842,140.6887,152.6381,143.7773,0.0538,,0.2079,0.2760,-99.0,,-99.0,-99.0,25.9814,,25.9811,,0.6667,84.6465,,7.815,,1.6310E+02,,3.6143E-01,,10.3601,10.3666,0.0955,,45.569,61.460,,,,,,,,,,,,
CalCOFI,2007SR,038,40,2007_038d,20-Jul-2020 02:14:46,19-Jul-2020 18:14:46,33.48968,-119.31766,086.7 045.0,086.7,045.0,38.000,38.275,,10.3616,,10.3650,,10.3633,33.8362,,33.8364,33.8382,,33.8398,33.8381,2.8673,,2.9783,3.1361,3.8567,,5.2659,3.8160,3.4761,124.811,129.8021,134.4685,167.879,139.7250,150.9292,142.6989,0.0632,,0.3183,0.3691,-99.0,,-99.0,-99.0,25.9823,,25.9832,,0.6682,84.6154,,7.810,,1.6188E+02,,3.5164E-01,,10.3572,10.3605,0.0975,,45.423,61.102,,,,,,,,,,,,
CalCOFI,2007SR,038,40,2007_038d,20-Jul-2020 02:14:48,19-Jul-2020 18:14:48,33.48968,-119.31766,086.7 045.0,086.7,045.0,39.000,39.282,,10.3559,,10.3567,,10.3563,33.8376,,33.8378,33.8395,,33.8411,33.8395,2.8541,,2.9645,3.1208,3.8331,,5.2096,3.7693,3.4451,124.234,129.1998,133.8125,166.849,138.3138,149.1014,141.4570,0.0529,,0.1973,0.2671,-99.0,,-99.0,-99.0,25.9843,,25.9857,,0.6651,84.6814,,7.807,,1.6186E+02,,3.3793E-01,,10.3513,10.3522,0.0996,,45.208,60.718,,,,,,,,,,,,
CalCOFI,2007SR,038,40,2007_038d,20-Jul-2020 02:14:50,19-Jul-2020 18:14:50,33.48968,-119.31766,086.7 045.0,086.7,045.0,40.000,40.290,,10.3409,,10.3426,,10.3418,33.8401,,33.8403,33.8420,,33.8436,33.8420,2.8165,,2.9253,3.0773,3.8049,,5.1422,3.7135,3.3954,122.597,127.4909,131.9512,165.622,134.3099,146.9241,139.4377,0.0552,,0.2243,0.2899,-99.0,,-99.0,-99.0,25.9889,,25.9901,,0.6642,84.6997,,7.805,,1.6292E+02,,3.2080E-01,,10.3362,10.3379,0.1016,,44.599,60.254,40,10.178,,,122.79,,,,,,,
CalCOFI,2007SR,038,40,2007_038d,20-Jul-2020 02:14:52,19-Jul-2020 18:14:52,33.48968,-119.31766,086.7 045.0,086.7,045.0,41.000,41.297,,10.3234,,10.3285,,10.3260,33.8429,,33.8431,33.8443,,33.8459,33.8445,2.7831,,2.8904,3.0387,3.7840,,5.0923,3.6722,3.3555,121.146,125.9762,130.3015,164.712,130.7610,145.3093,137.8054,0.0549,,0.2208,0.2869,-99.0,,-99.0,-99.0,25.9941,,25.9943,,0.6677,84.6266,,7.801,,1.6368E+02,,3.1031E-01,,10.3186,10.3237,0.1036,,44.056,59.906,,,,,,,,,,,,
CalCOFI,2007SR,038,40,2007_038d,20-Jul-2020 02:14:54,19-Jul-2020 18:14:54,33.48968,-119.31766,086.7 045.0,086.7,045.0,42.000,42.304,,10.2885,,10.2910,,10.2898,33.8475,,33.8477,33.8487,,33.8503,33.8490,2.7735,,2.8803,3.0276,3.7687,,5.0558,3.6419,3.3348,120.727,125.5388,129.8250,164.043,129.7361,144.1221,136.9736,0.0490,,0.1515,0.2282,-99.0,,-99.0,-99.0,26.0037,,26.0042,,0.6624,84.7375,,7.798,,1.6142E+02,,2.9834E-01,,10.2836,10.2861,0.1056,,43.872,59.616,,,,,,,,,,,,
CalCOFI,2007SR,038,40,2007_038d,20-Jul-2020 02:14:56,19-Jul-2020 18:14:56,33.48968,-119.31766,086.7 045.0,086.7,045.0,43.000,43.312,,10.2707,,10.2736,,10.2722,33.8497,,33.8499,33.8512,,33.8528,33.8514,2.7567,,2.8628,3.0081,3.7506,,5.0126,3.6061,3.3071,119.992,124.7715,128.9893,163.254,127.9384,142.7220,135.8557,0.0487,,0.1479,0.2252,-99.0,,-99.0,-99.0,26.0085,,26.0092,,0.6628,84.7304,,7.795,,1.6079E+02,,2.8774E-01,,10.2657,10.2686,0.1077,,43.589,59.309,,,,,,,,,,,,
CalCOFI,2007SR,038,40,2007_038d,20-Jul-2020 02:14:58,19-Jul-2020 18:14:58,33.48968,-119.31766,086.7 045.0,086.7,045.0,44.000,44.319,,10.2450,,10.2467,,10.2459,33.8520,,33.8522,33.8539,,33.8555,33.8539,2.7281,,2.8329,2.9750,3.7295,,4.9622,3.5644,3.2697,118.746,123.4708,127.5727,162.335,124.8909,141.0912,134.3320,0.0471,,0.1291,0.2092,-99.0,,-99.0,-99.0,26.0148,,26.0159,,0.6649,84.6864,,7.792,,1.6182E+02,,2.6987E-01,,10.2399,10.2416,0.1097,,43.113,58.942,,,,,,,,,,,,
CalCOFI,2007SR,038,40,2007_038d,20-Jul-2020 02:15:01,19-Jul-2020 18:15:01,33.48968,-119.31764,086.7 045.0,086.7,045.0,45.000,45.326,,10.1987,,10.2051,,10.2019,33.8566,,33.8568,33.8583,,33.8599,33.8584,2.7075,,2.8114,2.9512,3.7053,,4.9045,3.5165,3.2339,117.849,122.5345,126.5528,161.281,122.6970,139.2209,132.8869,0.0461,,0.1174,0.1992,-99.0,,-99.0,-99.0,26.0263,,26.0265,,0.6582,84.8269,,7.788,,1.6186E+02,,2.4534E-01,,10.1935,10.1998,0.1117,,42.746,58.509,,,,,,,,,,,,
CalCOFI,2007SR,038,40,2007_038d,20-Jul-2020 02:15:02,19-Jul-2020 18:15:02,33.48968,-119.31766,086.7 045.0,086.7,045.0,46.000,46.334,,10.1694,,10.1746,,10.1720,33.8607,,33.8609,33.8619,,33.8635,33.8622,2.6953,,2.7986,2.9371,3.6900,,4.8679,3.4862,3.2117,117.318,121.9802,125.9490,160.615,121.3982,138.0390,131.9940,0.0429,,0.0798,0.1671,-99.0,,-99.0,-99.0,26.0345,,26.0345,,0.6594,84.8023,,7.785,,1.6186E+02,,2.2969E-01,,10.1641,10.1693,0.1137,,42.528,58.230,,,,,,,,,,,,
CalCOFI,2007SR,038,40,2007_038d,20-Jul-2020 02:15:04,19-Jul-2020 18:15:04,33.48968,-119.31765,086.7 045.0,086.7,045.0,47.000,47.341,,10.1345,,10.1393,,10.1369,33.8640,,33.8642,33.8651,,33.8667,33.8655,2.6892,,2.7922,2.9300,3.6732,,4.8278,3.4530,3.1915,117.052,121.7025,125.6466,159.880,120.7476,136.7348,131.1907,0.0417,,0.0657,0.1550,-99.0,,-99.0,-99.0,26.0431,,26.0431,,0.6574,84.8437,,7.783,,1.6173E+02,,2.2179E-01,,10.1290,10.1338,0.1157,,42.401,57.921,,,,,,,,,,,,
CalCOFI,2007SR,038,40,2007_038d,20-Jul-2020 02:15:06,19-Jul-2020 18:15:06,33.48968,-119.31764,086.7 045.0,086.7,045.0,48.000,48.348,,10.0961,,10.0991,,10.0976,33.8690,,33.8692,33.8702,,33.8718,33.8705,2.6863,,2.7892,2.9266,3.6583,,4.7923,3.4235,3.1751,116.926,121.5710,125.5033,159.230,120.4394,135.5813,130.5423,0.0414,,0.0622,0.1520,-99.0,,-99.0,-99.0,26.0534,,26.0539,,0.6546,84.9039,,7.779,,1.5997E+02,,2.1190E-01,,10.0906,10.0936,0.1176,,42.322,57.638,,,,,,,,,,,,
CalCOFI,2007SR,038,40,2007_038d,20-Jul-2020 02:15:08,19-Jul-2020 18:15:08,33.48968,-119.31764,086.7 045.0,086.7,045.0,49.000,49.356,,10.0829,,10.0838,,10.0834,33.8707,,33.8709,33.8724,,33.8740,33.8725,2.6736,,2.7759,2.9119,3.6412,,4.7514,3.3897,3.1508,116.372,120.9926,124.8734,158.487,119.0844,134.2628,129.5681,0.0413,,0.0610,0.1510,-99.0,,-99.0,-99.0,26.0570,,26.0582,,0.6530,84.9380,,7.778,,1.6137E+02,,1.9897E-01,,10.0772,10.0782,0.1196,,42.110,57.351,,,,,,,,,,,,